Location: Minneapolis
(45.0000°N, 93.0000°W)
Time: 15:40:03

ISS - Pass Details

Date: 09 March 2018
Orbit: 403 x 406 km, 51.6° (Epoch: 22 March)

Event Time Altitude Azimuth Distance (km) Brightness Sun altitude
Exits shadow 05:35:30 12° 307° (NW) 1,379 -1.6 -11.4°
Maximum altitude 05:38:01 24° 2° (N) 877 -2.1 -11.0°
Drops below altitude 10° 05:40:47 10° 60° (ENE) 1,464 0.1 -10.5°
Sets 05:43:07 0° 74° (ENE) 2,323 1.9 -10.1°
